Weather History for KACB - May, 2013

Change the Weather History Date:

Wednesday, May 1, 2013

  Actual Average (KTVC) Record (KTVC)
Temperature  
Mean Temperature 64 °F 49 °F  
Max Temperature 79 °F 61 °F 85 °F (1951)
Min Temperature 49 °F 37 °F 21 °F (1961)
Degree Days  
Heating Degree Days 0 17  
Month to date heating degree days 17  
Since 1 July heating degree days 7084  
Cooling Degree Days 0 0  
Month to date cooling degree days 0  
Year to date cooling degree days 3  
Growing Degree Days 14 (Base 50)    
Moisture  
Dew Point 54 °F    
Average Humidity 63    
Maximum Humidity 91    
Minimum Humidity 46    
Precipitation  
Precipitation 0.00 in 0.08 in 0.83 in (1947)
Month to date precipitation 0.08  
Year to date precipitation 9.04  
Sea Level Pressure  
Sea Level Pressure 30.09 in    
Wind  
Wind Speed 7 mph (West)    
Max Wind Speed 12 mph    
Max Gust Speed 23 mph    
Visibility 10 miles    
Events      
T = Trace of Precipitation, MM = Missing Value Source: NWS Daily Summary

Daily Weather History Graph

Daily Weather History Graph

Search for Another Location

Airport or City:

Trip Planner

Search our weather history database for the weather conditions in past years. The results will help you decide how hot, cold, wet, or windy it might be!

Date:

Astronomy

May. 01, 2013 Rise Set
Actual Time 6:29 AM EDT 8:46 PM EDT
Civil Twilight 5:57 AM EDT 9:19 PM EDT
Nautical Twilight 5:17 AM EDT 9:59 PM EDT
Astronomical Twilight 4:32 AM EDT 10:44 PM EDT
Moon 1:56 AM EDT (5/1) 12:07 PM EDT (5/1)
Length of Visible Light 15h 21m
Length of Day
14h 16m
Waning Gibbous, 59% of the Moon is Illuminated
May 1
Waning Gibbous
May 2
Last Quarter
May 9
New
May 18
First Quarter
May 25
Full

Hourly Weather History & Observations

Time (EDT) Temp. Dew Point Humidity Pressure Visibility Wind Dir Wind Speed Gust Speed Precip Events Conditions
12:14 AM 69.8 °F 59.0 °F 68% 29.89 in 10.0 mi South 8.1 mph - N/A   Clear
12:34 AM 69.6 °F 59.0 °F 69% 29.90 in 10.0 mi South 8.1 mph - N/A   Clear
1:14 AM 69.8 °F 59.0 °F 68% 29.91 in 10.0 mi South 10.4 mph - N/A   Clear
1:34 AM 69.8 °F 59.0 °F 68% 29.92 in 10.0 mi South 9.2 mph - N/A   Clear
1:54 AM 69.3 °F 59.0 °F 70% 29.93 in 10.0 mi South 9.2 mph - N/A   Clear
2:14 AM 68.9 °F 58.8 °F 70% 29.94 in 10.0 mi South 8.1 mph - N/A   Clear
2:34 AM 68.2 °F 58.6 °F 71% 29.95 in 10.0 mi South 8.1 mph - N/A   Clear
2:51 AM 68.0 °F 58.6 °F 72% 29.96 in 10.0 mi South 6.9 mph - N/A   Clear
3:14 AM 68.0 °F 58.6 °F 72% 29.96 in 10.0 mi South 6.9 mph - N/A   Clear
3:34 AM 67.5 °F 58.6 °F 73% 29.97 in 10.0 mi South 8.1 mph - N/A   Clear
3:54 AM 67.1 °F 58.5 °F 74% 29.97 in 10.0 mi South 4.6 mph - N/A   Clear
4:15 AM 65.7 °F 58.5 °F 78% 29.98 in 10.0 mi North - - N/A   Clear
4:34 AM 65.5 °F 58.3 °F 77% 29.98 in 10.0 mi South 4.6 mph - N/A   Clear
4:54 AM 65.5 °F 58.3 °F 77% 29.99 in 10.0 mi South 4.6 mph - N/A   Clear
5:14 AM 65.7 °F 58.3 °F 77% 29.99 in 10.0 mi South 3.5 mph - N/A   Clear
5:34 AM 64.4 °F 58.1 °F 80% 30.00 in 10.0 mi North - - N/A   Clear
6:14 AM 58.8 °F 56.3 °F 91% 30.02 in 10.0 mi NW 5.8 mph - N/A   Scattered Clouds
6:34 AM 59.0 °F 53.8 °F 83% 30.03 in 10.0 mi NW 3.5 mph - N/A   Scattered Clouds
6:54 AM 58.1 °F 52.7 °F 82% 30.04 in 10.0 mi Calm Calm - N/A   Clear
7:14 AM 55.6 °F 52.0 °F 88% 30.05 in 7.0 mi Calm Calm - N/A   Clear
7:34 AM 57.2 °F 53.1 °F 86% 30.05 in 10.0 mi Calm Calm - N/A   Clear
7:54 AM 59.0 °F 53.6 °F 82% 30.05 in 10.0 mi Calm Calm - N/A   Clear
8:14 AM 61.0 °F 54.7 °F 80% 30.06 in 10.0 mi Calm Calm - N/A   Clear
8:35 AM 63.0 °F 55.9 °F 78% 30.06 in 10.0 mi Calm Calm - N/A   Clear
8:54 AM 67.1 °F 58.3 °F 73% 30.06 in 10.0 mi Calm Calm - N/A   Clear
9:14 AM 70.3 °F 59.0 °F 67% 30.06 in 10.0 mi South 6.9 mph - N/A   Clear
9:35 AM 73.0 °F 59.0 °F 61% 30.06 in 10.0 mi North - - N/A   Clear
9:54 AM 72.7 °F 58.5 °F 61% 30.06 in 10.0 mi South 6.9 mph - N/A   Clear
10:14 AM 74.1 °F 57.9 °F 57% 30.06 in 10.0 mi North - - N/A   Clear
10:35 AM 75.7 °F 57.4 °F 53% 30.07 in 10.0 mi South 6.9 mph - N/A   Clear
10:54 AM 76.3 °F 57.6 °F 52% 30.07 in 10.0 mi North - - N/A   Clear
11:14 AM 77.4 °F 58.1 °F 51% 30.08 in 10.0 mi North - - N/A   Clear
11:34 AM 76.8 °F 56.8 °F 50% 30.09 in 10.0 mi WSW 6.9 mph - N/A   Clear
12:15 PM 76.3 °F 56.8 °F 51% 30.10 in 10.0 mi North - - N/A   Clear
12:34 PM 75.9 °F 56.8 °F 51% 30.10 in 10.0 mi North 6.9 mph - N/A   Clear
12:54 PM 75.9 °F 56.5 °F 51% 30.10 in 10.0 mi North - - N/A   Clear
1:15 PM 77.0 °F 56.5 °F 49% 30.10 in 10.0 mi North - - N/A   Clear
1:34 PM 78.6 °F 56.5 °F 46% 30.09 in 10.0 mi NW 3.5 mph - N/A   Clear
1:54 PM 79.2 °F 56.5 °F 46% 30.10 in 10.0 mi NW 5.8 mph - N/A   Clear
2:15 PM 78.8 °F 56.7 °F 46% 30.10 in 10.0 mi North - - N/A   Clear
2:34 PM 77.0 °F 56.1 °F 48% 30.11 in 10.0 mi North - - N/A   Clear
2:54 PM 76.5 °F 56.3 °F 50% 30.11 in 10.0 mi North - - N/A   Clear
3:14 PM 75.0 °F 55.9 °F 51% 30.12 in 10.0 mi North - - N/A   Clear
3:34 PM 74.5 °F 55.6 °F 52% 30.12 in 10.0 mi WNW 11.5 mph - N/A   Clear
3:55 PM 72.9 °F 55.6 °F 55% 30.13 in 10.0 mi NW 8.1 mph 23.0 mph N/A   Clear
4:14 PM 72.7 °F 55.4 °F 55% 30.13 in 10.0 mi NW 9.2 mph 18.4 mph N/A   Clear
4:34 PM 72.9 °F 55.8 °F 55% 30.13 in 10.0 mi NW 9.2 mph - N/A   Clear
4:54 PM 73.6 °F 56.1 °F 54% 30.14 in 10.0 mi North - - N/A   Clear
5:14 PM 73.6 °F 55.6 °F 53% 30.14 in 10.0 mi North - - N/A   Clear
5:34 PM 72.9 °F 55.2 °F 54% 30.14 in 10.0 mi WNW 9.2 mph - N/A   Clear
5:54 PM 73.4 °F 55.0 °F 52% 30.15 in 10.0 mi North - - N/A   Clear
6:15 PM 73.4 °F 55.4 °F 53% 30.15 in 10.0 mi WNW 8.1 mph - N/A   Clear
6:34 PM 72.5 °F 54.3 °F 53% 30.15 in 10.0 mi WNW 10.4 mph 16.1 mph N/A   Clear
7:15 PM 68.2 °F 50.4 °F 53% 30.17 in 10.0 mi NNW 6.9 mph - N/A   Clear
7:34 PM 66.2 °F 48.7 °F 53% 30.18 in 10.0 mi North - - N/A   Clear
7:54 PM 63.9 °F 45.9 °F 52% 30.19 in 10.0 mi North 6.9 mph - N/A   Clear
8:15 PM 60.3 °F 43.3 °F 54% 30.20 in 10.0 mi NNW 5.8 mph - N/A   Clear
8:34 PM 58.3 °F 42.1 °F 55% 30.21 in 10.0 mi NNW 8.1 mph - N/A   Clear
8:55 PM 55.6 °F 40.6 °F 57% 30.22 in 10.0 mi North 5.8 mph - N/A   Mostly Cloudy
9:15 PM 54.5 °F 40.1 °F 58% 30.23 in 10.0 mi North 6.9 mph - N/A   Overcast
9:34 PM 53.6 °F 39.6 °F 59% 30.24 in 10.0 mi North 5.8 mph - N/A   Mostly Cloudy
9:55 PM 52.7 °F 39.4 °F 61% 30.25 in 10.0 mi North 6.9 mph - N/A   Mostly Cloudy
10:34 PM 52.0 °F 39.0 °F 61% 30.26 in 10.0 mi North 4.6 mph - N/A   Overcast
10:55 PM 51.8 °F 39.2 °F 62% 30.26 in 10.0 mi North 6.9 mph - N/A   Mostly Cloudy
11:15 PM 51.3 °F 39.0 °F 63% 30.26 in 10.0 mi NW 3.5 mph - N/A   Scattered Clouds
11:34 PM 50.9 °F 38.3 °F 62% 30.26 in 10.0 mi NNW 3.5 mph - N/A   Clear
11:54 PM 49.6 °F 37.6 °F 63% 30.26 in 10.0 mi North 6.9 mph - N/A   Scattered Clouds